Simultaneous Nadir Overpasses (SNOs) Predictions

Prediction of SNOs between AQUA and GOES-15 Satellite Orbit:

Table of predicted SNOs for the next 14.0 days since TLE Epoch: 12/7/2013
Index Date Time (AQUA) AQUA Lat,Lon GOES-15 Lat,Lon Distance(km) Time Diff (sec)
1 12/07/2013 10:20:31 -0.90,-131.35 -0.05,-135.38 458.25 80
2 12/07/2013 22:41:55 -0.21,-136.54 0.07,-135.34 137.56 80
3 12/09/2013 22:29:43 0.45,-133.59 0.07,-135.31 195.94 80
4 12/10/2013 10:50:58 0.65,-138.74 -0.09,-135.33 387.52 80
5 12/12/2013 10:38:45 0.01,-135.77 -0.08,-135.30 54.16 80
6 12/14/2013 10:26:31 -0.58,-132.80 -0.08,-135.25 278.82 80
7 12/14/2013 22:47:55 -0.50,-137.99 0.09,-135.21 316.76 80
8 12/16/2013 22:35:41 0.13,-135.02 0.09,-135.16 15.83 80
9 12/18/2013 22:23:26 0.73,-132.04 0.08,-135.11 347.90 80
10 12/19/2013 10:44:41 0.35,-137.20 -0.10,-135.12 236.25 80




NCC Satellite Simultaneous Nadir Overpasses (SNOs) Prediction Service
